Weather in Bekan

Russia / Republic of North Ossetia — Alania     43°15′47″N   44°15′51″E
temp.,
°C
wind,
m/s
gust,
m/s
humid.,
%
clouds,
%
prec.,
mm/h
press.,
hPa
HPBL,
m
28 november, sun
sun2800:00+4ene1172100 0.0 101910
03:00+4sse226899 0.0 101812
06:00+5se226594 0.0 101613
09:00+7se1159100 0.0 101612
12:00+11s1146100 0.0 1015128
15:00+11nnw225173 0.0 101428
18:00+7nw116096 0.0 101510
21:00+7se0063100 0.0 101510
29 november, mon
mon2900:00+6wsw016398 0.0 101410
03:00+6wnw116512 0.0 101510
06:00+6se116958 0.0 101610
09:00+8se1166100 0.0 101626
12:00+12ese12553 0.0 1014121
15:00+14ene00551 0.0 101413
18:00+10sse22654 0.0 101311
21:00+10s11645 0.0 101210
30 november, tue
tue3000:00+10se225715 0.0 100814
03:00+11se2251100 0.0 100613
06:00+11sse1154100 0.0 100411
09:00+12nnw6165417 0.0 1008479
12:00+13ne236410 0.0 1009634
15:00+13ene356736 0.0 1008722
18:00+10ese37810 0.1 1005142
21:00+9e11800 0.1 100018
1 december, wed
wed100:00+9se33780 0.0 99530
03:00+7nnw5109314 0.0 997216
06:00+8sw238834 0.0 100258
09:00+9ene12826 0.0 100379
12:00+6n6765100 0.0 1008703
15:00+6ene4462100 0.0 1009762
18:00+5ene3568100 0.0 1012791
21:00+4e2377100 0.0 1014583
2 december, thu
thu200:00+3ese2390100 0.1 1015340
03:00+2se129171 0.1 101581
06:00+1sse11915 0.0 101610
09:00+3sse11815 0.0 1019136
12:00+7ese11613 0.0 1018437
15:00+8ene01530 0.0 1019530
18:00+5nnw11650 0.0 102110
21:00+4ene01720 0.0 102210